Flag for Belarus Weather past 2 weeks in Gomel, Belarus

Now
61 °F

Sunny.


Feels Like: 61 °F
Forecast: 58 / 76 °F
Wind: 1 mph from North

Location: Gomel'

Current Time: Jun 30, 2015 at 9:00:07 AM

Latest Report: Jun 30, 2015 at 8:30 AM


Visibility: 10 mi

Pressure: 30.04 "Hg

Humidity: 72%

Dew point: 52 °F

Location of GomelLocation

Historic Weather in Gomel — Graph

°F

Gomel temperature yesterday

Maximum temperature yesterday: 75 °F (at 5:00 PM)
Minimum temperature yesterday: 50 °F (at 6:00 AM)
Average temperature yesterday: 65 °F

Past Weeks' High & Low Weather Summary

 TemperatureHumidityPressure
High82 °F (Jun 15, 7:00 PM)100% (Jun 16, 4:00 AM)30.07 "Hg (Jun 16, 4:00 AM)
Low46 °F (Jun 18, 5:00 AM)29% (Jun 18, 6:00 PM)29.77 "Hg (Jun 15, 8:00 AM)
Average65 °F64%29.91 "Hg
* Reported Jun 15 8:00 AM — Jun 30 8:00 AM, Gomel, Weather by CustomWeather, © 2015

Note: Actual official high and low records may vary slightly from our data, if they occured in-between our weather recording intervals... More about our weather records

Advertising

Gomel weather history for previous 24 hours

 ConditionsComfort  
Time TempWeatherWind HumidityBarometerVisibility
8:00 AM
Tue, Jun 30
61 °FSunny.1 mph72%30.04 "Hg10 mi
7:30 AM59 °FSunny.1 mph72%30.04 "Hg10 mi
7:00 AM59 °FSunny.1 mph72%30.01 "Hg10 mi
6:00 AM59 °FSunny.1 mph68%30.01 "Hg10 mi
5:00 AM59 °FClear.1 mph72%30.01 "Hg10 mi
4:00 AM59 °FClear.3 mph72%30.01 "Hg10 mi
3:00 AM59 °FClear.1 mph77%30.01 "Hg10 mi
2:00 AM59 °FClear.1 mph77%30.01 "Hg10 mi
1:00 AM61 °FClear.No wind72%30.01 "Hg10 mi
12:00 AM61 °FClear.3 mph68%30.01 "Hg10 mi
11:00 PM
Mon, Jun 29
61 °FClear.6 mph68%30.01 "Hg10 mi
10:00 PM63 °FSunny.6 mph64%30.01 "Hg10 mi
9:00 PM68 °FSunny.6 mph60%30.01 "Hg10 mi
8:00 PM72 °FSunny.6 mph41%29.98 "Hg10 mi
7:30 PM72 °FSunny.6 mph44%29.98 "Hg10 mi
7:00 PM72 °FSunny.8 mph44%29.98 "Hg10 mi
6:30 PM73 °FSunny.8 mph33%29.98 "Hg10 mi
6:00 PM73 °FSunny.13 mph33%29.98 "Hg10 mi
5:30 PM75 °FSunny.13 mph34%29.98 "Hg10 mi
5:00 PM75 °FSunny.13 mph34%29.98 "Hg10 mi
4:30 PM72 °FSunny.13 mph38%29.98 "Hg10 mi
4:00 PM72 °FSunny.13 mph38%29.98 "Hg10 mi
3:30 PM72 °FSunny.10 mph36%29.98 "Hg10 mi
3:00 PM72 °FSunny.13 mph36%29.98 "Hg10 mi
2:30 PM72 °FSunny.13 mph38%29.98 "Hg10 mi
2:00 PM72 °FSunny.10 mph38%29.98 "Hg10 mi
1:30 PM72 °FSunny.10 mph38%29.98 "Hg10 mi
1:00 PM72 °FSunny.13 mph38%29.98 "Hg10 mi
12:30 PM70 °FSunny.13 mph40%29.98 "Hg10 mi
12:00 PM70 °FSunny.13 mph40%29.98 "Hg10 mi
11:30 AM72 °FSunny.13 mph36%29.98 "Hg10 mi
11:00 AM72 °FSunny.13 mph36%29.98 "Hg10 mi
10:30 AM68 °FBroken clouds.10 mph46%29.98 "HgN/A
10:00 AM68 °FPartly sunny.10 mph46%29.98 "HgN/A
9:30 AM66 °FSunny.13 mph56%29.98 "Hg10 mi
9:00 AM66 °FSunny.10 mph56%29.98 "Hg10 mi
Weather by CustomWeather, © 2015

See weather overviewHow to use our weather pages